Location: Newark
(23.3970°S, 47.6010°W)
Time: 00:59:11
(UTC+00:00)

Tiros 1 despin weight - Pass Details

Date: 22 February 2020
Orbit: 593 x 642 km, 48.2° (Epoch: 31 March)

Event Time Altitude Azimuth Distance (km) Brightness Sun altitude
Rises 00:01:53 0° 241° (WSW) 2,946 ? -30.1°
Reaches altitude 10° 00:04:33 10° 253° (WSW) 2,025 ? -30.6°
Enters shadow 00:07:29 24° 290° (WNW) 1,325 ? -31.2°
Maximum altitude 00:08:22 25° 308° (NW) 1,271 - -31.4°
Drops below altitude 10° 00:12:07 10° 4° (N) 1,985 - -32.1°
Sets 00:14:43 0° 17° (NNE) 2,874 - -32.7°
